Location: Ecklingerode
(51.5036°N, 10.3122°E)
Time: 07:40:08
(UTC+00:00)

Meteor 2-3 Rocket - Pass Details

Date: 29 October 2020
Orbit: 843 x 885 km, 81.2° (Epoch: 01 December)

Event Time Altitude Azimuth Distance (km) Brightness Sun altitude
Rises 18:10:40 0° 349° (N) 3,458 7.1 -21.3°
Reaches altitude 10° 18:13:10 10° 354° (N) 2,523 6.3 -21.7°
Maximum altitude 18:18:48 54° 72° (ENE) 1,058 3.8 -22.6°
Enters shadow 18:19:35 50° 101° (E) 1,106 3.8 -22.7°
